Charlottetown, Prince Edward Island

5:34 AM ADT on May 27, 2017 (GMT -0300)
Charlottetown

Weather History for CYYG - May, 2013

Change the Weather History Date:

Sunday, May 19, 2013

  Actual Average Record
Temperature  
Mean Temperature 41 °F -  
Max Temperature 48 °F 63 °F 79 °F (2017)
Min Temperature 32 °F 45 °F 32 °F (2013)
Degree Days  
Heating Degree Days 24    
Moisture  
Dew Point 28 °F    
Average Humidity 63    
Maximum Humidity 80    
Minimum Humidity 40    
Precipitation  
Precipitation 0.00 in 0.12 in - ()
Sea Level Pressure  
Sea Level Pressure 30.39 in    
Wind  
Wind Speed 9 mph ()    
Max Wind Speed 17 mph    
Max Gust Speed 21 mph    
Visibility 15.0 miles    
Events      
Averages and records for this station are not official NWS values.
T = Trace of Precipitation, MM = Missing Value Source: Averaged Metar Reports

Daily Weather History Graph

Daily Weather History Graph

Search for Another Location

Airport or City:

Trip Planner

Search our weather history database for the weather conditions in past years. The results will help you decide how hot, cold, wet, or windy it might be!

Date:

Astronomy

May. 19, 2013 Rise Set
Actual Time 5:34 AM ADT 8:43 PM ADT
Civil Twilight 4:58 AM ADT 9:20 PM ADT
Nautical Twilight 4:12 AM ADT 10:06 PM ADT
Astronomical Twilight 3:15 AM ADT 11:04 PM ADT
Moon 2:23 PM ADT (5/19) 2:17 AM ADT (5/19)
Length of Visible Light 16h 21m
Length of Day
15h 09m
Waxing Gibbous, 64% of the Moon is Illuminated
May 19
Waxing Gibbous
May 25
Full
May 31
Last Quarter
Jun 8
New
Jun 16
First Quarter

Hourly Weather History & Observations

Time (ADT) Temp. Windchill Dew Point Humidity Pressure Visibility Wind Dir Wind Speed Gust Speed Precip Events Conditions
12:00 AM 35.6 °F 25.5 °F 26.6 °F 70% 30.37 in 15.0 mi NNE 17.3 mph - N/A   Overcast
1:00 AM 33.8 °F 24.8 °F 26.6 °F 75% 30.37 in 14.0 mi NNE 12.7 mph - N/A   Overcast
2:00 AM 35.6 °F 28.0 °F 26.6 °F 70% 30.36 in 15.0 mi North 10.4 mph - N/A   Overcast
3:00 AM 34 °F - 24 °F 56% 30.37 in 15 mi North 11.5 mph - -   Overcast
3:00 AM 33.8 °F 24.8 °F 24.8 °F 70% 30.37 in 15.0 mi North 12.7 mph - N/A   Overcast
4:00 AM 32.0 °F 25.6 °F 23.0 °F 69% 30.37 in 15.0 mi NNW 6.9 mph - N/A   Mostly Cloudy
5:00 AM 30.2 °F 25.4 °F 24.8 °F 80% 30.38 in 15.0 mi NNW 4.6 mph - N/A   Mostly Cloudy
6:00 AM 32.0 °F 26.4 °F 26.6 °F 80% 30.40 in 15.0 mi NNW 5.8 mph - N/A   Mostly Cloudy
7:00 AM 35.6 °F 29.9 °F 28.4 °F 75% 30.41 in 15.0 mi NNW 6.9 mph - N/A   Mostly Cloudy
8:00 AM 37.4 °F 32.1 °F 28.4 °F 70% 30.43 in 15.0 mi NNW 6.9 mph - N/A   Mostly Cloudy
9:00 AM 34 °F - 24 °F 56% 30.37 in 15 mi North 11.5 mph - -   Overcast
9:00 AM 37.4 °F 30.8 °F 28.4 °F 70% 30.43 in 15.0 mi NNW 9.2 mph 17.3 mph N/A   Mostly Cloudy
10:00 AM 39.2 °F 32.5 °F 28.4 °F 65% 30.43 in 15.0 mi North 10.4 mph - N/A   Mostly Cloudy
11:00 AM 41.0 °F 34.3 °F 30.2 °F 65% 30.43 in 15.0 mi North 11.5 mph 20.7 mph N/A   Mostly Cloudy
12:00 PM 44.6 °F 38.8 °F 33.8 °F 66% 30.42 in 15.0 mi North 11.5 mph 18.4 mph N/A   Mostly Cloudy
1:00 PM 44.6 °F 39.2 °F 33.8 °F 66% 30.41 in 15.0 mi NW 10.4 mph 18.4 mph N/A   Scattered Clouds
2:00 PM 46.4 °F 42.4 °F 32.0 °F 57% 30.41 in 15.0 mi NNW 8.1 mph 17.3 mph N/A   Partly Cloudy
3:00 PM 47 °F - 31 °F 42% 30.40 in 15 mi NNW 9.2 mph - -   Scattered Clouds
3:00 PM 46.4 °F 42.4 °F 32.0 °F 57% 30.40 in 15.0 mi NNW 8.1 mph - N/A   Partly Cloudy
4:00 PM 48.2 °F - 28.4 °F 46% 30.38 in 15.0 mi NNW 9.2 mph - N/A   Partly Cloudy
5:00 PM 48.2 °F - 28.4 °F 46% 30.38 in 15.0 mi NW 9.2 mph - N/A   Partly Cloudy
6:00 PM 48.2 °F - 24.8 °F 40% 30.37 in 15.0 mi NNW 6.9 mph - N/A   Clear
7:00 PM 48.2 °F - 26.6 °F 43% 30.36 in 15.0 mi North 5.8 mph - N/A   Partly Cloudy
8:00 PM 44.6 °F 42.2 °F 28.4 °F 53% 30.36 in 15.0 mi North 4.6 mph - N/A   Partly Cloudy
9:00 PM 39 °F - 28 °F 54% 30.36 in 15 mi NE 2.3 mph - -   Clear
9:00 PM 39.2 °F 37.0 °F 28.4 °F 65% 30.35 in 15.0 mi NE 3.5 mph - N/A   Partly Cloudy
9:26 PM 35.6 °F 32.8 °F 26.6 °F 70% 30.36 in 15.0 mi East 3.5 mph - N/A   Partly Cloudy
10:00 PM 37.4 °F - 28.4 °F 70% 30.35 in 15.0 mi ESE 2.3 mph - N/A   Clear
11:00 PM 32.0 °F - 26.6 °F 80% 30.37 in 15.0 mi SSW 2.3 mph - N/A   Clear